DW8816 Weather Reports


time (UTC)temp
C
wind
direction
speed
KPH
gust
KPH
rain 1hr
cm
rain 24hr
cm
rain mn
cm
humidity
%
barometer
mb
20260502233003 13 229 1.6 14.5 0.00 0.10 0.00 92 1009.6
20260502232003 13 215 1.6 11.3 0.00 0.10 0.00 92 1009.7
20260502231004 13 236 1.6 11.3 0.00 0.10 0.00 92 1009.7
20260502230004 13 219 1.6 9.7 0.00 0.10 0.00 92 1009.8
20260502225004 13 227 3.2 9.7 0.00 0.10 0.10 92 1009.7
20260502223004 13 230 1.6 8.0 0.00 0.10 0.10 92 1009.8
20260502222004 13 193 3.2 9.7 0.00 0.10 0.10 91 1009.6
20260502221004 13 210 3.2 12.9 0.00 0.10 0.10 91 1009.6
20260502215004 14 220 1.6 11.3 0.00 0.10 0.10 90 1009.7
20260502214003 14 234 1.6 11.3 0.00 0.10 0.10 91 1009.7
20260502213004 14 208 1.6 9.7 0.00 0.10 0.10 90 1009.8
20260502212004 14 140 1.6 6.4 0.00 0.10 0.10 90 1010.0
20260502211004 14 161 0.0 6.4 0.00 0.10 0.10 90 1010.2
20260502210004 15 193 1.6 6.4 0.03 0.10 0.10 90 1010.1
20260502204003 14 204 1.6 4.8 0.03 0.10 0.10 90 1010.3
20260502202003 14 135 1.6 8.0 0.03 0.10 0.10 89 1010.2
20260502201003 14 126 1.6 14.5 0.03 0.10 0.10 89 1010.2
20260502200005 14 129 1.6 8.0 0.00 0.08 0.08 90 1010.3
20260502195003 14 127 1.6 9.7 0.00 0.08 0.08 90 1010.3
20260502193004 14 106 0.0 3.2 0.00 0.08 0.08 92 1010.3
20260502191004 14 121 0.0 3.2 0.00 0.08 0.08 92 1010.3
20260502190002 14 144 1.6 8.0 0.00 0.08 0.08 92 1010.5
20260502185003 14 141 1.6 8.0 0.00 0.08 0.08 92 1010.3
20260502184003 14 141 1.6 6.4 0.00 0.08 0.08 92 1010.4
20260502183003 14 0 0.0 3.2 0.00 0.08 0.08 91 1010.6
20260502182003 14 0 0.0 6.4 0.03 0.08 0.08 91 1010.6
20260502164002 18 201 6.4 29.0 0.00 0.00 0.00 70 1011.4
20260502163002 20 202 4.8 22.5 0.00 0.00 0.00 63 1011.2
20260502161003 21 173 1.6 9.7 0.00 0.00 0.00 59 1011.0
20260502152003 21 218 3.2 14.5 0.00 0.00 0.00 52 1011.9
20260502151003 22 214 3.2 11.3 0.00 0.00 0.00 52 1012.0
20260502123004 20 176 3.2 12.9 0.00 0.00 0.00 53 1014.5
20260502122003 20 223 3.2 12.9 0.00 0.00 0.00 55 1014.5
20260502121003 20 233 1.6 11.3 0.00 0.00 0.00 54 1014.5
20260502115003 18 46 3.2 8.0 0.00 0.00 0.00 58 1015.0
20260502113003 18 194 3.2 11.3 0.00 0.00 0.00 60 1015.3
20260502112002 18 183 3.2 11.3 0.00 0.00 0.00 62 1015.4
20260502111002 18 238 4.8 14.5 0.00 0.00 0.00 63 1015.6
20260502110002 18 241 3.2 12.9 0.00 0.00 0.00 64 1015.8
20260502105002 17 130 3.2 12.9 0.00 0.00 0.00 67 1015.9
20260502104002 17 185 3.2 9.7 0.00 0.00 0.00 69 1015.9
20260502103003 17 230 3.2 14.5 0.00 0.00 0.00 67 1016.2
20260502102003 17 139 3.2 14.5 0.00 0.00 0.00 68 1016.2
20260502101003 18 252 4.8 12.9 0.00 0.00 0.00 67 1016.2
20260502071003 10 262 1.6 4.8 0.00 0.00 0.00 95 1017.5
20260502070003 10 263 1.6 6.4 0.00 0.00 0.00 95 1017.3
20260502065003 10 263 1.6 6.4 0.00 0.00 0.00 95 1017.3
20260502064004 10 261 1.6 9.7 0.00 0.00 0.00 95 1017.3
20260502063002 9 261 1.6 3.2 0.00 0.00 0.00 95 1017.4
20260502062002 9 262 1.6 6.4 0.00 0.00 0.00 95 1017.4
20260502060003 9 257 1.6 4.8 0.00 0.00 0.00 95 1017.3
20260502055003 9 255 1.6 6.4 0.00 0.00 0.00 95 1017.3
20260502053003 9 269 1.6 4.8 0.00 0.00 0.00 95 1017.3
20260502052003 9 267 1.6 4.8 0.00 0.00 0.00 95 1017.3
20260502051003 9 249 0.0 6.4 0.00 0.00 0.00 95 1017.2
20260502050002 9 215 0.0 6.4 0.00 0.00 0.00 95 1017.2
20260502044002 9 213 0.0 3.2 0.00 0.00 0.00 94 1017.1
20260502043003 9 198 0.0 6.4 0.00 0.00 0.00 94 1017.1
20260502042002 9 0 0.0 3.2 0.00 0.00 0.00 94 1017.0
20260502035004 9 0 0.0 1.6 0.00 0.00 0.00 93 1017.2
20260502034003 9 0 0.0 1.6 0.00 0.00 0.00 93 1017.3
20260502033002 9 0 0.0 4.8 0.00 0.00 0.00 93 1017.3
20260502032003 9 0 0.0 3.2 0.00 0.00 0.00 93 1017.4
20260502031004 10 0 0.0 3.2 0.00 0.00 0.00 92 1017.4
20260502024003 10 0 0.0 3.2 0.00 0.00 0.00 91 1017.4
20260502023003 10 0 0.0 1.6 0.00 0.00 0.00 91 1017.4
20260502021002 10 0 0.0 6.4 0.00 0.00 0.00 90 1017.4
20260502012003 11 0 0.0 1.6 0.00 0.00 0.00 87 1017.7
20260502011004 11 0 0.0 1.6 0.00 0.00 0.00 87 1018.0
20260502010003 11 0 0.0 3.2 0.00 0.00 0.00 86 1018.1
20260502005002 11 0 0.0 1.6 0.00 0.00 0.00 86 1018.2
20260502004003 11 0 0.0 4.8 0.00 0.00 0.00 85 1018.3
20260502003003 11 0 0.0 3.2 0.00 0.00 0.00 84 1018.3
20260502002003 11 0 0.0 4.8 0.00 0.00 0.00 83 1018.5
20260502001003 12 0 0.0 3.2 0.00 0.00 0.00 83 1018.5
20260501235003 12 0 0.0 4.8 0.00 0.00 0.00 81 1018.6
20260501234003 12 0 0.0 3.2 0.00 0.00 0.00 81 1018.6